Location: Cz?stochówka
(50.8142°N, 19.0915°E)
Time: 19:26:27
(UTC+00:00)

Cosmos 2082 Rocket - Pass Details

Date: 13 January 2026
Orbit: 831 x 853 km, 71.0° (Epoch: 13 February)

Event Time Altitude Azimuth Distance (km) Brightness Sun altitude
Exits shadow 05:23:11 - 327° (NNW) 2,592 4.3 -11.8°
Reaches altitude 10° 05:23:30 10° 327° (NNW) 2,470 4.2 -11.8°
Maximum altitude 05:29:08 69° 245° (WSW) 904 2.2 -10.9°
Drops below altitude 10° 05:34:46 10° 163° (SSE) 2,468 5.2 -10.1°
Sets 05:37:13 0° 161° (SSE) 3,403 6.0 -9.7°
